sat.trackr.live / text

‹ back to catalog

STARLINK-5430

NORAD 54803 · 2022-175AX

PAYLOAD ACTIVE UNKNOWN

§ Identity

Operator
Country
US
Launch date
2022-12-17
Launch site
AFETR
Launch vehicle
Mass (kg)
RCS (m²)

Purposes: comms

External: N2YO · Heavens-Above · Gunter

§ Orbital elements

Epoch: 2026-05-25T01:33:41.830272Z

Period
95.44 min
Inclination
53.2133°
Eccentricity
0.0001485
Mean motion
15.08852161 rev/d
Perigee alt
538.7 km
Apogee alt
540.7 km
Semi-major
6,917.8 km
B*
-1.5074e-4
RAAN
60.9209°
Arg perigee
97.3102°
Mean anomaly
262.8059°
Rev number
19,145

§ Raw data

STARLINK-54301 54803U 22175AX  26145.06506748 -.00002687  00000+0 -15074-3 0  99952 54803  53.2133  60.9209 0001485  97.3102 262.8059 15.08852161191454

JSON: /api/v1/satellites/54803 · /tle

For live sub-satellite position, see the globe view (requires WebGL).

§ Visibility from observer

Set your observer location to see the next 7 days of passes ≥ 10°. The values pass through the URL so the page stays shareable.

No JS? Fill the form by hand. The geolocation button needs JavaScript.